Time+0430,TemperatureF,Dew PointF,Humidity,Sea Level PressureIn,VisibilityMPH,Wind Direction,Wind SpeedMPH,Gust SpeedMPH,PrecipitationIn,Events,Conditions,WindDirDegrees,DateUTC
12:20 AM,48.2,39.2,71,30.06,5.6,SE,3.5,-,N/A,,Mostly Cloudy,130,2013-01-24 19:50:00
1:20 AM,53.6,35.6,51,30.06,5.6,SE,8.1,-,N/A,,Mostly Cloudy,140,2013-01-24 20:50:00
2:20 AM,46.4,37.4,71,30.06,5.6,NW,5.8,-,N/A,,Mostly Cloudy,310,2013-01-24 21:50:00
3:20 AM,46.4,37.4,71,30.06,5.6,North,3.5,-,N/A,,Mostly Cloudy,350,2013-01-24 22:50:00
4:20 AM,44.6,37.4,76,30.09,6.2,Variable,2.3,-,N/A,,Scattered Clouds,0,2013-01-24 23:50:00
5:20 AM,41.0,35.6,81,30.09,6.2,ENE,5.8,-,N/A,,Mostly Cloudy,70,2013-01-25 00:50:00
6:20 AM,42.8,37.4,81,30.09,6.2,SSW,3.5,-,N/A,,Mostly Cloudy,200,2013-01-25 01:50:00
7:20 AM,41.0,37.4,87,30.12,6.2,South,1.2,-,N/A,,Partly Cloudy,190,2013-01-25 02:50:00
8:20 AM,44.6,37.4,76,30.12,6.2,West,2.3,-,N/A,,Partly Cloudy,260,2013-01-25 03:50:00
9:20 AM,51.8,37.4,58,30.15,6.2,West,2.3,-,N/A,,Partly Cloudy,280,2013-01-25 04:50:00
10:20 AM,59.0,37.4,45,30.18,6.2,SE,2.3,-,N/A,,Partly Cloudy,130,2013-01-25 05:50:00
11:20 AM,60.8,35.6,39,30.15,6.2,East,5.8,-,N/A,,Partly Cloudy,80,2013-01-25 06:50:00
12:20 PM,60.8,35.6,39,30.15,6.2,ENE,16.1,-,N/A,,Partly Cloudy,70,2013-01-25 07:50:00
1:20 PM,62.6,37.4,39,30.12,6.2,East,17.3,-,N/A,,Partly Cloudy,80,2013-01-25 08:50:00
2:20 PM,62.6,37.4,39,30.12,6.2,East,17.3,-,N/A,,Partly Cloudy,80,2013-01-25 09:50:00
3:20 PM,60.8,35.6,39,30.12,6.2,East,18.4,-,N/A,,Partly Cloudy,80,2013-01-25 10:50:00
4:20 PM,59.0,39.2,48,30.12,6.2,East,16.1,-,N/A,,Partly Cloudy,90,2013-01-25 11:50:00
5:20 PM,57.2,39.2,51,30.12,6.2,East,15.0,-,N/A,,Partly Cloudy,80,2013-01-25 12:50:00
6:20 PM,57.2,39.2,51,30.15,6.2,East,15.0,-,N/A,,Partly Cloudy,90,2013-01-25 13:50:00
7:20 PM,55.4,37.4,51,30.15,6.2,ESE,9.2,-,N/A,,Partly Cloudy,110,2013-01-25 14:50:00
8:20 PM,51.8,37.4,58,30.15,6.2,East,8.1,-,N/A,,Partly Cloudy,100,2013-01-25 15:50:00
9:20 PM,50.0,39.2,66,30.15,6.2,Variable,2.3,-,N/A,,Partly Cloudy,0,2013-01-25 16:50:00
10:20 PM,50.0,39.2,66,30.15,6.2,SW,2.3,-,N/A,,Partly Cloudy,220,2013-01-25 17:50:00
11:20 PM,46.4,39.2,76,30.18,6.2,Variable,1.2,-,N/A,,Scattered Clouds,0,2013-01-25 18:50:00